Location: Rimouski
(48.4330°N, 68.5170°W)
Time: 08:33:50
(UTC-05:00)

N. Korean satellite - Visible Passes

Search period start: 19 February 2019 00:00
Search period end: 01 March 2019 00:00
Orbit: 457 x 510 km, 97.2° (Epoch: 18 February)

Date Brightness Start Highest point End Pass type
(mag) Time Alt. Az. Time Alt. Az. Time Alt. Az.
19 Feb 10.1 04:45:17 10° ENE 04:46:47 12° E 04:48:17 10° ESE visible
20 Feb 6.6 05:52:21 10° NNE 05:55:50 80° ESE 05:59:16 10° S visible
20 Feb 10.2 18:06:44 10° WSW 18:08:35 13° W 18:10:25 10° WNW visible
21 Feb 8.2 05:27:45 10° NNE 05:31:02 38° E 05:34:15 10° SSE visible
21 Feb 9.5 17:40:37 10° SSW 17:43:39 24° W 17:46:39 10° NW visible
22 Feb 9.5 05:03:31 10° NE 05:06:09 20° E 05:08:44 10° SE visible
23 Feb 10.3 04:40:22 10° ENE 04:41:10 11° E 04:41:57 10° ESE visible
24 Feb 6.9 05:46:48 10° NNE 05:50:15 68° E 05:53:40 10° S visible
24 Feb 10.1 18:00:50 10° SW 18:02:58 15° W 18:05:07 10° NW visible
25 Feb 8.5 05:22:15 10° NNE 05:25:25 33° E 05:28:33 10° SSE visible
26 Feb 9.8 04:58:07 10° NE 05:00:30 17° E 05:02:53 10° SE visible
28 Feb 7.2 05:41:13 10° NNE 05:44:37 57° E 05:48:00 10° S visible
28 Feb 10.0 17:54:57 10° SW 17:57:20 17° W 17:59:43 10° NW visible
